DECAYED

STARLINK-1585, 46117 (Decayed)

Orbit data source: Space-Track

STARLINK-1585, 46117 was a payload satellite owned by SpaceX/Seattle (US) in LEO that was launched on Tue, 18 Aug 2020 UTC via an FALCON 9 launch vehicle from the Air Force Eastern Test Range (AFETR). Payload-class satellites include a variety of spacecraft equipped with specific instruments for various scientific and technological missions. These include communications satellites like Starlink; space stations such as the ISS; scientific satellites like the Hubble; Earth observation satellites from companies like Planet Labs, Umbra, and HawkEye 360; GPS; miniature CubeSats for education and research; and military/defense satellites.

Not visible in the next 10 days
Identifier
46117, 2020-057A
Orbit
Decayed
Country
Flag of USUS
Related business
Manufacturer
SpaceX/Seattle
Mission
Decayed Commercial Communications
Bus & Motor
STARLINK, Unknown motor
Mass
260 kg wet, ~248 kg dry
Launch date (UTC)
2020-08-18 (6 years ago)
Launch vehicle
FALCON 9
Launch site
Air Force Eastern Test Range (AFETR)
Object type
Payload
Rocket body
Debris
Shape & HBR
Box + 1 Pan, 10.1 m
Radar Cross Section
13.562 m², Large (>1 m²)

Expand to show TLE details & history
Last TLE update: 1 month ago

TLE from 1 month ago
0 STARLINK-1585
1 46117U 20057A   26099.16793931  .11459576  12437-4  54684-3 0  9997
2 46117  53.0184  90.0589 0003463 257.3183 102.7477 16.43134421311910
Epoch: 2026-04-09T04:01Z
TLE epoch observation values (Epoch: 2026-04-09T04:01:49.956Z)
Latitude
-0.00005°
Longitude
-167.81912°
Altitude
158.905 km
Speed
7.812 km/s
True Right ascension
06h 00m 14s
True Declination
0° 00' 00"
Sunlit
Object was in daylight at epoch
Visualization orbit readout
Latitude
Unknown
Longitude
Unknown
Altitude
Unknown
Speed
Unknown
Apparent Right ascension
Unknown
Apparent Declination
Unknown
Sunlit
N/A
Visualization observer readout
Local Sidereal Time
04:04:30
Azimuth
Unknown
Elevation
Unknown
Doppler factor
Unknown
Orbital elements
Apogee altitude
160.034 km
Perigee altitude
155.507 km
Semi-major axis
6,535.907 km
Eccentricity
0.00035
Inclination
53.0184°
RAAN
90.0589°
Arg. of periapsis
257.3183°
True anomaly
102.7864°
Mean anomaly
102.7477°
Eccentric anomaly
102.76705°
Mean motion
4.10756 °/min
Orbital period
87.64 mins
BSTAR
0.00054684
Loading maneuver chart data...
Computing Atmospheric mass density...

Documentation

Showing up to 5 results
|